Starlink 30791

operational
NORAD ID: 58177 Int'l Des: 2023-167 Owner: SPXS Country: US Constellation: starlink
LEOCIRCULAR

Starlink 30791について

説明を読み込み中...

リアルタイム位置

3D地球を読み込み中...

次回通過

高度履歴

Altitude vs Time

uPlot chart will show altitude changes over time

軌道要素

1 58177U 23167C 25258.03706977 .00000132 00000-0 24879-4 0 9998
2 58177 43.0044 20.2818 0001294 271.4405 88.6289 15.02538871104539
Epoch: Sep 15, 2025 • Age: 15 hours

現在のステータス

高度 562.8 km
速度 7.59 km/s
衛星直下点 41.78°N, 139.41°W
打ち上げ日 Oct 30, 2023
運用期間 1.8 years
タイプ internet

技術仕様

分類 Payload
質量 730.00 kg
乾燥質量 700.00 kg
総質量 730.00 kg
長さ 0.30 m
直径 4.10 m
スパン 29.00 m
形状 Box + pan
製造者 SPXS
バスタイプ Starlink V2M
フェーズステータス In Orbit
所有者/国 SPXS/US

大規模コンステレーション

Loading constellations...